Previsão horária em Al Karnak

Hoje, 14 Junho, Segunda-feira

Tempo Temperatura Precipitação Vento Pressão Humidade
00:00 +36°C° 0 mm 6 m/s 746 mmHg 21%
01:00 +35°C° 0 mm 6 m/s 746 mmHg 23%
02:00 +34°C° 0 mm 7 m/s 746 mmHg 25%
03:00 +33°C° 0 mm 6 m/s 746 mmHg 27%
04:00 +32°C° 0 mm 6 m/s 746 mmHg 29%
05:00 +30°C° 0 mm 5 m/s 747 mmHg 32%
06:00 +32°C° 0 mm 6 m/s 747 mmHg 29%
07:00 +33°C° 0 mm 8 m/s 748 mmHg 26%
08:00 +35°C° 0 mm 9 m/s 748 mmHg 22%
09:00 +37°C° 0 mm 10 m/s 748 mmHg 20%
10:00 +38°C° 0 mm 10 m/s 748 mmHg 17%
11:00 +41°C° 0 mm 11 m/s 748 mmHg 14%
12:00 +41°C° 0 mm 11 m/s 747 mmHg 13%
13:00 +42°C° 0 mm 11 m/s 747 mmHg 12%
14:00 +42°C° 0 mm 10 m/s 746 mmHg 11%
15:00 +42°C° 0 mm 10 m/s 746 mmHg 11%
16:00 +40°C° 0 mm 10 m/s 746 mmHg 11%
17:00 +40°C° 0 mm 9 m/s 746 mmHg 11%
18:00 +38°C° 0 mm 8 m/s 747 mmHg 12%
19:00 +36°C° 0 mm 7 m/s 747 mmHg 13%
20:00 +34°C° 0 mm 6 m/s 748 mmHg 15%
21:00 +34°C° 0 mm 5 m/s 748 mmHg 16%
22:00 +33°C° 0 mm 5 m/s 748 mmHg 17%
23:00 +32°C° 0 mm 4 m/s 748 mmHg 18%

Amanhã, 15 Junho, Terça-feira

Tempo Temperatura Precipitação Vento Pressão Humidade
00:00 +30°C° 0 mm 4 m/s 748 mmHg 20%
01:00 +29°C° 0 mm 3 m/s 748 mmHg 21%
02:00 +29°C° 0 mm 3 m/s 747 mmHg 23%
03:00 +28°C° 0 mm 3 m/s 748 mmHg 25%
04:00 +27°C° 0 mm 3 m/s 748 mmHg 27%
05:00 +27°C° 0 mm 3 m/s 748 mmHg 29%
06:00 +28°C° 0 mm 4 m/s 748 mmHg 27%
07:00 +30°C° 0 mm 5 m/s 748 mmHg 26%
08:00 +33°C° 0 mm 7 m/s 748 mmHg 25%
09:00 +34°C° 0 mm 7 m/s 748 mmHg 21%
10:00 +36°C° 0 mm 7 m/s 748 mmHg 17%
11:00 +39°C° 0 mm 7 m/s 748 mmHg 13%
12:00 +40°C° 0 mm 7 m/s 747 mmHg 12%
13:00 +41°C° 0 mm 7 m/s 747 mmHg 11%
14:00 +43°C° 0 mm 7 m/s 746 mmHg 10%
15:00 +41°C° 0 mm 7 m/s 746 mmHg 10%
16:00 +41°C° 0 mm 8 m/s 746 mmHg 10%
17:00 +41°C° 0 mm 8 m/s 746 mmHg 10%
18:00 +39°C° 0 mm 7 m/s 746 mmHg 11%
19:00 +36°C° 0 mm 7 m/s 747 mmHg 12%
20:00 +35°C° 0 mm 6 m/s 747 mmHg 13%
21:00 +34°C° 0 mm 6 m/s 747 mmHg 15%
22:00 +33°C° 0 mm 5 m/s 747 mmHg 17%
23:00 +32°C° 0 mm 4 m/s 747 mmHg 19%

Depois de amanhã, 16 Junho, Quarta-feira

Tempo Temperatura Precipitação Vento Pressão Humidade
00:00 +30°C° 0 mm 4 m/s 747 mmHg 21%
01:00 +30°C° 0 mm 3 m/s 747 mmHg 23%
02:00 +29°C° 0 mm 3 m/s 747 mmHg 25%
03:00 +28°C° 0 mm 3 m/s 747 mmHg 27%
04:00 +28°C° 0 mm 3 m/s 748 mmHg 29%
05:00 +27°C° 0 mm 3 m/s 748 mmHg 32%
06:00 +29°C° 0 mm 4 m/s 748 mmHg 31%
07:00 +30°C° 0 mm 4 m/s 748 mmHg 29%
08:00 +33°C° 0 mm 5 m/s 749 mmHg 28%
09:00 +35°C° 0 mm 5 m/s 748 mmHg 23%
10:00 +38°C° 0 mm 6 m/s 748 mmHg 18%
11:00 +40°C° 0 mm 7 m/s 748 mmHg 13%
12:00 +41°C° 0 mm 7 m/s 748 mmHg 11%
13:00 +43°C° 0 mm 7 m/s 747 mmHg 9%
14:00 +44°C° 0 mm 7 m/s 747 mmHg 7%
15:00 +44°C° 0 mm 7 m/s 747 mmHg 7%
16:00 +44°C° 0 mm 7 m/s 747 mmHg 7%
17:00 +43°C° 0 mm 7 m/s 746 mmHg 7%
18:00 +41°C° 0 mm 7 m/s 747 mmHg 9%
19:00 +39°C° 0 mm 6 m/s 747 mmHg 10%
20:00 +36°C° 0 mm 5 m/s 748 mmHg 12%
21:00 +35°C° 0 mm 4 m/s 748 mmHg 14%
22:00 +34°C° 0 mm 4 m/s 749 mmHg 16%
23:00 +31°C° 0 mm 3 m/s 749 mmHg 17%

17 Junho, Quinta-feira

Tempo Temperatura Precipitação Vento Pressão Humidade
00:00 +31°C° 0 mm 3 m/s 749 mmHg 20%
01:00 +30°C° 0 mm 3 m/s 749 mmHg 22%
02:00 +29°C° 0 mm 3 m/s 749 mmHg 24%
03:00 +29°C° 0 mm 3 m/s 749 mmHg 28%
04:00 +28°C° 0 mm 3 m/s 749 mmHg 31%
05:00 +27°C° 0 mm 3 m/s 749 mmHg 34%
06:00 +29°C° 0 mm 4 m/s 749 mmHg 32%
07:00 +30°C° 0 mm 5 m/s 750 mmHg 31%
08:00 +33°C° 0 mm 6 m/s 750 mmHg 29%
09:00 +35°C° 0 mm 6 m/s 750 mmHg 23%
10:00 +38°C° 0 mm 6 m/s 749 mmHg 18%
11:00 +41°C° 0 mm 7 m/s 749 mmHg 12%
12:00 +43°C° 0 mm 7 m/s 749 mmHg 10%
13:00 +44°C° 0 mm 7 m/s 748 mmHg 9%
14:00 +45°C° 0 mm 7 m/s 748 mmHg 8%
15:00 +44°C° 0 mm 7 m/s 748 mmHg 7%
16:00 +44°C° 0 mm 8 m/s 748 mmHg 7%
17:00 +44°C° 0 mm 8 m/s 747 mmHg 7%
18:00 +41°C° 0 mm 8 m/s 748 mmHg 8%
19:00 +39°C° 0 mm 7 m/s 748 mmHg 9%
20:00 +36°C° 0 mm 7 m/s 748 mmHg 10%
21:00 +35°C° 0 mm 6 m/s 749 mmHg 11%
22:00 +34°C° 0 mm 6 m/s 749 mmHg 12%
23:00 +33°C° 0 mm 5 m/s 749 mmHg 13%

18 Junho, Sexta-feira

Tempo Temperatura Precipitação Vento Pressão Humidade
00:00 +32°C° 0 mm 5 m/s 748 mmHg 16%
01:00 +30°C° 0 mm 4 m/s 748 mmHg 18%
02:00 +29°C° 0 mm 3 m/s 748 mmHg 20%
03:00 +28°C° 0 mm 3 m/s 748 mmHg 23%
04:00 +27°C° 0 mm 3 m/s 748 mmHg 25%
05:00 +27°C° 0 mm 2 m/s 748 mmHg 27%
06:00 +28°C° 0 mm 3 m/s 748 mmHg 26%
07:00 +30°C° 0 mm 4 m/s 748 mmHg 24%
08:00 +33°C° 0 mm 5 m/s 749 mmHg 23%
09:00 +35°C° 0 mm 5 m/s 748 mmHg 19%
10:00 +38°C° 0 mm 6 m/s 748 mmHg 16%
11:00 +40°C° 0 mm 6 m/s 748 mmHg 12%
12:00 +41°C° 0 mm 7 m/s 747 mmHg 11%
13:00 +43°C° 0 mm 7 m/s 746 mmHg 9%
14:00 +45°C° 0 mm 7 m/s 746 mmHg 7%
15:00 +44°C° 0 mm 7 m/s 746 mmHg 8%
16:00 +44°C° 0 mm 8 m/s 746 mmHg 8%
17:00 +44°C° 0 mm 8 m/s 746 mmHg 8%
18:00 +41°C° 0 mm 7 m/s 746 mmHg 10%
19:00 +39°C° 0 mm 7 m/s 746 mmHg 12%
20:00 +36°C° 0 mm 6 m/s 746 mmHg 14%
21:00 +36°C° 0 mm 6 m/s 747 mmHg 16%
22:00 +35°C° 0 mm 6 m/s 747 mmHg 17%
23:00 +34°C° 0 mm 5 m/s 747 mmHg 19%

19 Junho, Sábado

Tempo Temperatura Precipitação Vento Pressão Humidade
00:00 +33°C° 0 mm 5 m/s 747 mmHg 21%
01:00 +32°C° 0 mm 4 m/s 747 mmHg 23%
02:00 +30°C° 0 mm 3 m/s 747 mmHg 25%
03:00 +29°C° 0 mm 3 m/s 747 mmHg 27%
04:00 +28°C° 0 mm 3 m/s 747 mmHg 29%
05:00 +28°C° 0 mm 3 m/s 747 mmHg 30%
06:00 +29°C° 0 mm 4 m/s 747 mmHg 28%
07:00 +32°C° 0 mm 5 m/s 748 mmHg 26%
08:00 +33°C° 0 mm 5 m/s 748 mmHg 24%
09:00 +35°C° 0 mm 6 m/s 748 mmHg 20%
10:00 +39°C° 0 mm 6 m/s 747 mmHg 16%
11:00 +41°C° 0 mm 7 m/s 747 mmHg 11%
12:00 +42°C° 0 mm 6 m/s 747 mmHg 10%
13:00 +44°C° 0 mm 6 m/s 746 mmHg 8%
14:00 +45°C° 0 mm 6 m/s 746 mmHg 6%
15:00 +44°C° 0 mm 6 m/s 746 mmHg 6%
16:00 +44°C° 0 mm 7 m/s 745 mmHg 6%
17:00 +44°C° 0 mm 7 m/s 745 mmHg 6%
18:00 +41°C° 0 mm 7 m/s 746 mmHg 7%
19:00 +39°C° 0 mm 6 m/s 746 mmHg 8%
20:00 +36°C° 0 mm 6 m/s 746 mmHg 10%
21:00 +35°C° 0 mm 6 m/s 746 mmHg 11%
22:00 +34°C° 0 mm 5 m/s 747 mmHg 12%
23:00 +34°C° 0 mm 5 m/s 747 mmHg 13%
Mostrar mais